Weather History for KPPQ - January, 2006

Change the Weather History Date:

Sunday, January 15, 2006

  Actual Average (KUIN) Record (KUIN)
Temperature  
Mean Temperature 40 °F 26 °F  
Max Temperature 50 °F 34 °F 65 °F (1949)
Min Temperature 30 °F 18 °F -16 °F (1972)
Degree Days  
Heating Degree Days 25 39  
Month to date heating degree days 581  
Since 1 July heating degree days 2772  
Cooling Degree Days 0 0  
Month to date cooling degree days 0  
Year to date cooling degree days 0  
Moisture  
Dew Point 30 °F    
Average Humidity 71    
Maximum Humidity 87    
Minimum Humidity 53    
Precipitation  
Precipitation 0.00 in 0.05 in 0.64 in (1969)
Month to date precipitation 0.77  
Year to date precipitation 0.77  
Sea Level Pressure  
Sea Level Pressure 29.81 in    
Wind  
Wind Speed 10 mph (ESE)    
Max Wind Speed 18 mph    
Max Gust Speed 23 mph    
Visibility 10 miles    
Events      
T = Trace of Precipitation, MM = Missing Value Source: NWS Daily Summary

Daily Weather History Graph

Daily Weather History Graph

Search for Another Location

Airport or City:

Trip Planner

Search our weather history database for the weather conditions in past years. The results will help you decide how hot, cold, wet, or windy it might be!

Date:

Astronomy

Jan. 15, 2006 Rise Set
Actual Time 7:22 AM CST 5:03 PM CST
Civil Twilight 6:52 AM CST 5:32 PM CST
Nautical Twilight 6:19 AM CST 6:06 PM CST
Astronomical Twilight 5:47 AM CST 6:38 PM CST
Moon 6:18 PM CST (1/15) 8:31 AM CST (1/15)
Length of Visible Light 10h 40m
Length of Day
9h 41m
Full, 98% of the Moon is Illuminated
Jan 15
Full
Jan 22
Last Quarter
Jan 29
New
Feb 5
First Quarter
Feb 12
Full

Hourly Weather History & Observations

Time (CST) Temp. Windchill Dew Point Humidity Pressure Visibility Wind Dir Wind Speed Gust Speed Precip Events Conditions
12:03 AM 32.0 °F 26.4 °F 26.6 °F 80% 30.06 in 10.0 mi ESE 5.8 mph - N/A   Clear
12:23 AM 32.0 °F 24.8 °F 26.6 °F 80% 30.05 in 10.0 mi ESE 8.1 mph - N/A   Clear
12:44 AM 32.0 °F 25.6 °F 26.6 °F 80% 30.04 in 10.0 mi ESE 6.9 mph - N/A   Clear
1:04 AM 32.0 °F 25.6 °F 26.6 °F 80% 30.03 in 10.0 mi ESE 6.9 mph - N/A   Clear
1:23 AM 30.2 °F 23.4 °F 26.6 °F 86% 30.04 in 10.0 mi ESE 6.9 mph - N/A   Clear
1:43 AM 30.2 °F 23.4 °F 26.6 °F 86% 30.04 in 10.0 mi ESE 6.9 mph - N/A   Clear
2:03 AM 32.0 °F 26.4 °F 26.6 °F 80% 30.04 in 10.0 mi ESE 5.8 mph - N/A   Clear
2:23 AM 32.0 °F 25.6 °F 26.6 °F 80% 30.04 in 10.0 mi ESE 6.9 mph - N/A   Clear
2:43 AM 32.0 °F 24.2 °F 26.6 °F 80% 30.03 in 10.0 mi ESE 9.2 mph - N/A   Clear
3:03 AM 32.0 °F 24.2 °F 26.6 °F 80% 30.01 in 10.0 mi ESE 9.2 mph - N/A   Clear
3:23 AM 32.0 °F 24.8 °F 26.6 °F 80% 30.00 in 10.0 mi ESE 8.1 mph - N/A   Clear
3:44 AM 32.0 °F 24.2 °F 26.6 °F 80% 29.98 in 10.0 mi ESE 9.2 mph - N/A   Clear
4:03 AM 32.0 °F 23.6 °F 26.6 °F 80% 29.97 in 10.0 mi ESE 10.4 mph - N/A   Clear
4:23 AM 32.0 °F 24.2 °F 26.6 °F 80% 29.95 in 10.0 mi ESE 9.2 mph - N/A   Clear
4:43 AM 32.0 °F 24.2 °F 26.6 °F 80% 29.94 in 10.0 mi ESE 9.2 mph - N/A   Clear
5:03 AM 32.0 °F 24.2 °F 26.6 °F 80% 29.94 in 10.0 mi ESE 9.2 mph - N/A   Clear
5:23 AM 32.0 °F 24.2 °F 28.4 °F 87% 29.92 in 10.0 mi ESE 9.2 mph - N/A   Clear
5:43 AM 33.8 °F 25.8 °F 28.4 °F 81% 29.91 in 10.0 mi ESE 10.4 mph - N/A   Clear
6:03 AM 33.8 °F 25.8 °F 26.6 °F 75% 29.90 in 10.0 mi ESE 10.4 mph - N/A   Clear
6:23 AM 33.8 °F 24.8 °F 28.4 °F 81% 29.89 in 10.0 mi ESE 12.7 mph - N/A   Clear
6:43 AM 33.8 °F 25.8 °F 28.4 °F 81% 29.88 in 10.0 mi ESE 10.4 mph - N/A   Clear
7:03 AM 33.8 °F 25.3 °F 28.4 °F 81% 29.88 in 10.0 mi ESE 11.5 mph - N/A   Clear
7:23 AM 33.8 °F 24.8 °F 28.4 °F 81% 29.87 in 10.0 mi ESE 12.7 mph - N/A   Clear
7:43 AM 33.8 °F 24.3 °F 28.4 °F 81% 29.85 in 10.0 mi ESE 13.8 mph - N/A   Clear
8:03 AM 33.8 °F 24.3 °F 28.4 °F 81% 29.85 in 10.0 mi ESE 13.8 mph - N/A   Clear
8:23 AM 33.8 °F 23.9 °F 28.4 °F 81% 29.84 in 10.0 mi ESE 15.0 mph - N/A   Clear
8:43 AM 35.6 °F 26.2 °F 28.4 °F 75% 29.84 in 10.0 mi ESE 15.0 mph - N/A   Clear
9:03 AM 35.6 °F 25.5 °F 28.4 °F 75% 29.83 in 10.0 mi ESE 17.3 mph - N/A   Clear
9:24 AM 37.4 °F 28.2 °F 30.2 °F 75% 29.82 in 10.0 mi ESE 16.1 mph 21.9 mph N/A   Clear
10:03 AM 37.4 °F 28.9 °F 30.2 °F 75% 29.81 in 10.0 mi ESE 13.8 mph - N/A   Clear
10:23 AM 39.2 °F 31.2 °F 30.2 °F 70% 29.79 in 10.0 mi ESE 13.8 mph - N/A   Clear
10:44 AM 42.8 °F 36.6 °F 30.2 °F 61% 29.78 in 10.0 mi ESE 11.5 mph 17.3 mph N/A   Clear
11:03 AM 44.6 °F 38.4 °F 30.2 °F 57% 29.76 in 10.0 mi ESE 12.7 mph - N/A   Clear
11:24 AM 46.4 °F 39.8 °F 30.2 °F 53% 29.75 in 10.0 mi East 16.1 mph 21.9 mph N/A   Clear
11:43 AM 44.6 °F 37.2 °F 30.2 °F 57% 29.73 in 10.0 mi East 17.3 mph 23.0 mph N/A   Clear
12:03 PM 46.4 °F 40.4 °F 32.0 °F 57% 29.71 in 10.0 mi East 13.8 mph 20.7 mph N/A   Clear
12:23 PM 46.4 °F 40.7 °F 32.0 °F 57% 29.69 in 10.0 mi ESE 12.7 mph - N/A   Clear
12:43 PM 48.2 °F - 33.8 °F 58% 29.67 in 10.0 mi ESE 13.8 mph 20.7 mph N/A   Clear
1:03 PM 48.2 °F - 33.8 °F 58% 29.66 in 10.0 mi ESE 16.1 mph 20.7 mph N/A   Clear
1:23 PM 48.2 °F - 33.8 °F 58% 29.64 in 10.0 mi East 17.3 mph 23.0 mph N/A   Clear
1:43 PM 50.0 °F - 33.8 °F 54% 29.63 in 10.0 mi ESE 16.1 mph 20.7 mph N/A   Clear
2:03 PM 50.0 °F - 33.8 °F 54% 29.62 in 10.0 mi ESE 18.4 mph 21.9 mph N/A   Clear
2:23 PM 50.0 °F - 33.8 °F 54% 29.61 in 10.0 mi ESE 13.8 mph 19.6 mph N/A   Clear
2:43 PM 48.2 °F - 33.8 °F 58% 29.61 in 10.0 mi ESE 15.0 mph 20.7 mph N/A   Clear
3:03 PM 48.2 °F - 33.8 °F 58% 29.60 in 10.0 mi ESE 13.8 mph 21.9 mph N/A   Clear
3:23 PM 48.2 °F - 33.8 °F 58% 29.60 in 10.0 mi ESE 12.7 mph - N/A   Clear
3:43 PM 48.2 °F - 33.8 °F 58% 29.60 in 10.0 mi ESE 15.0 mph 18.4 mph N/A   Clear
4:03 PM 46.4 °F 40.1 °F 33.8 °F 62% 29.59 in 10.0 mi ESE 15.0 mph - N/A   Clear
4:23 PM 46.4 °F 40.4 °F 33.8 °F 62% 29.60 in 10.0 mi ESE 13.8 mph 18.4 mph N/A   Clear
4:43 PM 44.6 °F 38.8 °F 33.8 °F 66% 29.59 in 10.0 mi ESE 11.5 mph - N/A   Clear
5:03 PM 44.6 °F 39.2 °F 32.0 °F 61% 29.59 in 10.0 mi ESE 10.4 mph - N/A   Clear
5:23 PM 42.8 °F 37.0 °F 32.0 °F 66% 29.59 in 10.0 mi ESE 10.4 mph - N/A   Clear
5:43 PM 42.8 °F 37.5 °F 32.0 °F 66% 29.59 in 10.0 mi ESE 9.2 mph - N/A   Clear
6:03 PM 42.8 °F 37.0 °F 32.0 °F 66% 29.58 in 10.0 mi ESE 10.4 mph - N/A   Clear
6:23 PM 41.0 °F 35.8 °F 32.0 °F 70% 29.58 in 10.0 mi East 8.1 mph - N/A   Clear
7:03 PM 39.2 °F 33.6 °F 32.0 °F 75% 29.58 in 10.0 mi ESE 8.1 mph - N/A   Clear
7:23 PM 39.2 °F 34.2 °F 32.0 °F 75% 29.58 in 10.0 mi ESE 6.9 mph - N/A   Clear
7:43 PM 39.2 °F 35.0 °F 32.0 °F 75% 29.58 in 10.0 mi ESE 5.8 mph - N/A   Clear
8:03 PM 37.4 °F 32.1 °F 32.0 °F 81% 29.58 in 10.0 mi ESE 6.9 mph - N/A   Clear
8:23 PM 37.4 °F 32.1 °F 32.0 °F 81% 29.57 in 10.0 mi ESE 6.9 mph - N/A   Clear
8:44 PM 37.4 °F 32.1 °F 32.0 °F 81% 29.57 in 10.0 mi ESE 6.9 mph - N/A   Clear
9:03 PM 37.4 °F 31.4 °F 32.0 °F 81% 29.56 in 10.0 mi ESE 8.1 mph - N/A   Clear
9:23 PM 37.4 °F 31.4 °F 32.0 °F 81% 29.55 in 10.0 mi ESE 8.1 mph - N/A   Clear
9:43 PM 37.4 °F 32.1 °F 32.0 °F 81% 29.55 in 10.0 mi ESE 6.9 mph - N/A   Clear
10:03 PM 37.4 °F 32.1 °F 32.0 °F 81% 29.55 in 10.0 mi ESE 6.9 mph - N/A   Clear
10:23 PM 37.4 °F 33.8 °F 30.2 °F 75% 29.55 in 10.0 mi ESE 4.6 mph - N/A   Clear
10:44 PM 37.4 °F 32.8 °F 30.2 °F 75% 29.55 in 10.0 mi ESE 5.8 mph - N/A   Clear
11:03 PM 37.4 °F 32.1 °F 30.2 °F 75% 29.54 in 10.0 mi ESE 6.9 mph - N/A   Clear
11:23 PM 37.4 °F 33.8 °F 30.2 °F 75% 29.54 in 10.0 mi ESE 4.6 mph - N/A   Clear
11:43 PM 39.2 °F 35.9 °F 30.2 °F 70% 29.54 in 10.0 mi East 4.6 mph - N/A   Clear